Regional Weather Roundup
Issued by NWS Albany, NY

Home | Current Version | Previous Version | Text Only | Print | Product List | Glossary On
Versions: 1 2 3 4 5 6 7 8 9 10 11 12 13 14 15 16 17 18 19 20 21 22 23 24 25 26 27 28 29 30 31 32 33 34 35 36 37 38 39 40 41 42 43 44 45 46 47 48 49 50
000
ASUS41 KALY 070510
RWRALY

NEW YORK STATE HOURLY WEATHER ROUNDUP
NATIONAL WEATHER SERVICE ALBANY NY
100 AM EDT THU MAY 07 2015

NOTE: "FAIR" INDICATES FEW OR NO CLOUDS BELOW 12,000 FEET WITH NO
SIGNIFICANT WEATHER AND/OR NO OBSTRUCTIONS TO VISIBILITY.

NYZ032-033-038>043-046>054-057>066-NYZ062>081-070600-
EAST


CITY           SKY/WX    TMP DP  RH WIND       PRES   REMARKS
ALBANY         CLEAR     59  40  49 S6        30.21R
GLENS FALLS    FAIR      54  41  61 CALM      30.20R
POUGHKEEPSIE   CLEAR     49  44  83 CALM      30.23S
NEWBURGH       CLEAR     52  46  82 CALM      30.25R
MONTGOMERY     CLEAR     47  44  90 S3        30.23S
WHITE PLAINS   CLEAR     50  45  83 NW3       30.23S
ISLIP          CLEAR     49  41  74 CALM      30.23S
NEW YORK CITY  CLEAR     59  45  59 S3        30.24S
CENTRAL PARK   CLEAR     59  45  59 CALM      30.27S
$$

NYZ005>009-017-018-044>046-055-056-070600-
CENTRAL


CITY           SKY/WX    TMP DP  RH WIND       PRES   REMARKS
FULTON         CLEAR     49  41  74 CALM      30.22R
SYRACUSE       PTCLDY    56  42  59 CALM      30.21S
ROME           CLEAR     49  39  68 CALM      30.23R
ELMIRA         FOG       47  47 100 CALM      30.24R VSB 1/4
BINGHAMTON     CLEAR     56  47  71 CALM      30.24S
MONTICELLO     CLEAR     48  45  87 CALM      30.27S
$$

NYZ026>034-041>043-070600-
NORTH


CITY           SKY/WX    TMP DP  RH WIND       PRES   REMARKS
WATERTOWN      CLEAR     45  40  82 E5        30.19R
FORT DRUM      NOT AVBL
MASSENA        CLEAR     48  42  80 SW5       30.17S
SARANAC LAKE   CLEAR     37  32  82 CALM      30.20S
PLATTSBURGH    CLEAR     54  37  52 S5        30.15S
$$

NYZ001>004-010>016-019>021-070600-
WEST


CITY           SKY/WX    TMP DP  RH WIND       PRES   REMARKS
NIAGARA FALLS  CLEAR     55  38  52 CALM      30.19R
BUFFALO        CLEAR     60  50  69 S5        30.20R
DUNKIRK        CLEAR     54  51  90 CALM      30.19S
JAMESTOWN      CLEAR     55  52  88 SE6       30.22S
WELLSVILLE     MOCLDY    55  52  89 SE7       30.25S
ROCHESTER      PTCLDY    58  37  45 CALM      30.21S
PENN YAN       CLEAR     57  52  83 SW6       30.23R
$$

             KEY
       WCI = WIND CHILL INDEX
       VSB = VISIBILITY
       HX  = HEAT INDEX
$$


USA.gov is the U.S. government's official web portal to all federal, state and local government web resources and services.